Weather History for Pecos, TX

Change the Weather History Date:

Monday, February 18, 2013

  Actual Average Record
Temperature  
Mean Temperature 54 °F -  
Max Temperature 70 °F 66 °F 89 °F (1948)
Min Temperature 37 °F 32 °F 15 °F (1942)
Degree Days  
Heating Degree Days 12    
Growing Degree Days 4 (Base 50)    
Moisture  
Dew Point 15 °F    
Average Humidity 29    
Maximum Humidity 46    
Minimum Humidity 11    
Precipitation  
Precipitation 0.00 in - - ()
Sea Level Pressure  
Sea Level Pressure 29.93 in    
Wind  
Wind Speed 6 mph (SSW)    
Max Wind Speed 24 mph    
Max Gust Speed 28 mph    
Visibility 10 miles    
Events      
Averages and records for this station are not official NWS values.
T = Trace of Precipitation, MM = Missing Value Source: NWS Daily Summary

Daily Weather History Graph

Daily Weather History Graph

Search for Another Location

Airport:

Trip Planner

Search our weather history database for the weather conditions in past years. The results will help you decide how hot, cold, wet, or windy it might be!

Date:

Astronomy

Feb. 18, 2013 Rise Set
Actual Time 7:32 AM CST 6:43 PM CST
Civil Twilight 7:07 AM CST 7:08 PM CST
Nautical Twilight 6:39 AM CST 7:37 PM CST
Astronomical Twilight 6:11 AM CST 8:05 PM CST
Moon 12:42 PM CST (2/18) 2:03 AM CST (2/18)
Length of Visible Light 12h 01m
Length of Day
11h 11m
First Quarter, 58% of the Moon is Illuminated
Feb 18
First Quarter
Feb 25
Full
Mar 4
Last Quarter
Mar 11
New
Mar 19
First Quarter

Hourly Weather History & Observations

Time (CST) Temp. Windchill Dew Point Humidity Pressure Visibility Wind Dir Wind Speed Gust Speed Precip Events Conditions
12:15 AM 46.6 °F - 15.3 °F 29% 29.80 in 10.0 mi South 4.6 mph - N/A   Clear
12:35 AM 46.9 °F - 15.6 °F 29% 29.81 in 10.0 mi South 5.8 mph - N/A   Clear
12:55 AM 44.4 °F 40.0 °F 15.6 °F 31% 29.80 in 10.0 mi South 8.1 mph - N/A   Clear
1:15 AM 43.3 °F 40.7 °F 15.6 °F 33% 29.80 in 10.0 mi SSE 4.6 mph - N/A   Clear
1:35 AM 41.2 °F 38.2 °F 16.5 °F 37% 29.80 in 10.0 mi SE 4.6 mph - N/A   Clear
1:55 AM 40.3 °F 34.4 °F 16.3 °F 38% 29.80 in 10.0 mi SE 9.2 mph - N/A   Clear
2:15 AM 39.6 °F 35.4 °F 15.8 °F 38% 29.80 in 10.0 mi ESE 5.8 mph - N/A   Clear
2:35 AM 38.5 °F 35.0 °F 16.0 °F 40% 29.80 in 10.0 mi ESE 4.6 mph - N/A   Clear
2:55 AM 38.5 °F 34.1 °F 16.3 °F 41% 29.80 in 10.0 mi East 5.8 mph - N/A   Clear
3:15 AM 37.4 °F 34.9 °F 16.7 °F 43% 29.81 in 10.0 mi East 3.5 mph - N/A   Clear
3:35 AM 37.8 °F 35.3 °F 18.3 °F 46% 29.82 in 10.0 mi NNE 3.5 mph - N/A   Clear
3:55 AM 39.6 °F - 19.0 °F 44% 29.83 in 10.0 mi Calm Calm - N/A   Clear
4:15 AM 38.1 °F - 18.1 °F 45% 29.84 in 10.0 mi Calm Calm - N/A   Clear
4:35 AM 38.8 °F 34.6 °F 18.0 °F 43% 29.84 in 10.0 mi WSW 5.8 mph - N/A   Clear
4:55 AM 41.7 °F 37.3 °F 17.2 °F 37% 29.85 in 10.0 mi WSW 6.9 mph - N/A   Clear
5:15 AM 42.6 °F 37.2 °F 17.2 °F 36% 29.86 in 10.0 mi WSW 9.2 mph - N/A   Clear
5:35 AM 47.5 °F - 16.0 °F 28% 29.86 in 10.0 mi WSW 9.2 mph - N/A   Clear
5:55 AM 45.0 °F 40.1 °F 15.6 °F 31% 29.88 in 10.0 mi SW 9.2 mph - N/A   Clear
6:15 AM 44.2 °F 39.2 °F 15.4 °F 31% 29.89 in 10.0 mi SW 9.2 mph - N/A   Clear
6:35 AM 41.7 °F 38.0 °F 15.4 °F 35% 29.90 in 10.0 mi SSW 5.8 mph - N/A   Clear
6:55 AM 39.2 °F 33.6 °F 14.9 °F 37% 29.90 in 10.0 mi SSW 8.1 mph - N/A   Clear
7:15 AM 38.1 °F 32.3 °F 14.2 °F 38% 29.91 in 10.0 mi SSW 8.1 mph - N/A   Clear
7:35 AM 39.2 °F 35.0 °F 14.2 °F 36% 29.92 in 10.0 mi SSW 5.8 mph - N/A   Clear
7:55 AM 39.2 °F 37.0 °F 13.8 °F 36% 29.93 in 10.0 mi SW 3.5 mph - N/A   Clear
8:15 AM 39.9 °F 35.1 °F 15.3 °F 37% 29.95 in 10.0 mi SW 6.9 mph - N/A   Clear
8:35 AM 44.2 °F 39.7 °F 16.2 °F 32% 29.96 in 10.0 mi SW 8.1 mph - N/A   Clear
9:15 AM 54.7 °F - 17.4 °F 23% 29.98 in 10.0 mi WSW 8.1 mph - N/A   Clear
9:55 AM 61.7 °F - 15.1 °F 16% 29.99 in 10.0 mi West 19.6 mph 26.5 mph N/A   Clear
10:35 AM 63.3 °F - 14.9 °F 15% 30.00 in 10.0 mi West 24.2 mph 27.6 mph N/A   Clear
10:55 AM 64.0 °F - 15.1 °F 15% 30.01 in 10.0 mi West 19.6 mph 26.5 mph N/A   Clear
11:55 AM 66.6 °F - 14.7 °F 14% 30.02 in 10.0 mi West 12.7 mph 19.6 mph N/A   Clear
1:55 PM 69.4 °F - 14.0 °F 12% 29.98 in 10.0 mi West 4.6 mph - N/A   Clear
3:15 PM 70.2 °F - 13.6 °F 11% 29.96 in 10.0 mi WNW 4.6 mph - N/A   Clear
4:35 PM 69.6 °F - 13.5 °F 12% 29.95 in 10.0 mi Calm Calm - N/A   Clear
4:55 PM 68.9 °F - 12.6 °F 11% 29.96 in 10.0 mi WNW 3.5 mph - N/A   Clear
5:35 PM 68.2 °F - 12.6 °F 12% 29.97 in 10.0 mi West 5.8 mph - N/A   Clear
5:55 PM 66.9 °F - 12.9 °F 12% 29.97 in 10.0 mi SW 4.6 mph - N/A   Clear
6:35 PM 64.0 °F - 13.1 °F 14% 29.98 in 10.0 mi WSW 4.6 mph - N/A   Clear
6:55 PM 63.0 °F - 12.6 °F 14% 29.99 in 10.0 mi Calm Calm - N/A   Clear
7:15 PM 61.2 °F - 12.4 °F 15% 30.00 in 10.0 mi NW 3.5 mph - N/A   Clear
7:55 PM 58.8 °F - 11.8 °F 16% 30.01 in 10.0 mi Calm Calm - N/A   Clear
8:15 PM 52.0 °F - 10.9 °F 19% 30.02 in 10.0 mi ESE 3.5 mph - N/A   Clear
9:35 PM 49.5 °F - 16.5 °F 27% 30.05 in 10.0 mi ENE 6.9 mph - N/A   Clear
9:55 PM 46.6 °F - 16.7 °F 30% 30.06 in 10.0 mi East 6.9 mph - N/A   Clear
10:15 PM 46.6 °F - 17.2 °F 31% 30.07 in 10.0 mi East 6.9 mph - N/A   Clear
10:35 PM 44.6 °F 40.7 °F 17.2 °F 33% 30.07 in 10.0 mi East 6.9 mph - N/A   Clear
10:55 PM 44.4 °F 40.5 °F 17.4 °F 34% 30.07 in 10.0 mi East 6.9 mph - N/A   Clear
11:15 PM 44.1 °F 42.5 °F 17.4 °F 34% 30.09 in 10.0 mi East 3.5 mph - N/A   Clear
11:35 PM 44.8 °F - 17.6 °F 34% 30.09 in 10.0 mi Calm Calm - N/A   Clear
11:55 PM 41.9 °F - 16.0 °F 35% 30.10 in 10.0 mi Calm Calm - N/A   Clear